DW6228 Weather Reports


Display with metric or nautical units.
time (UTC)temp
F
wind
direction
speed
MPH
gust
MPH
rain 1hr
in
rain 24hr
in
rain mn
in
humidity
%
barometer
mb
20181211083548 61 133 3.0 8.0 0.00 0.00 0.00 80 1011.7
20181211082546 61 88 3.0 9.0 0.00 0.00 0.00 81 1011.8
20181211081525 62 101 3.0 9.0 0.00 0.00 0.00 80 1011.7
20181211080541 62 86 3.0 8.0 0.00 0.00 0.00 79 1011.8
20181211075601 62 195 1.0 10.0 0.00 0.00 0.00 79 1012.0
20181211074608 62 104 3.0 10.0 0.00 0.00 0.00 78 1011.9
20181211073628 62 99 4.0 9.0 0.00 0.00 0.00 77 1011.8
20181211072632 62 90 3.0 9.0 0.00 0.00 0.00 76 1012.0
20181211071654 63 192 4.0 10.0 0.00 0.00 0.00 74 1012.0
20181211070649 63 86 5.0 11.0 0.00 0.00 0.00 74 1012.0
20181211065620 63 94 4.0 11.0 0.00 0.00 0.00 73 1011.9
20181211064552 64 88 4.0 9.0 0.00 0.00 0.00 71 1012.0
20181211063546 65 100 3.0 9.0 0.00 0.00 0.00 69 1012.0
20181211062544 65 95 3.0 8.0 0.00 0.00 0.00 68 1012.1
20181211061526 67 76 3.0 8.0 0.00 0.00 0.00 65 1012.2
20181211060525 67 68 3.0 9.0 0.00 0.00 0.00 63 1012.1
20181211055449 68 91 3.0 9.0 0.00 0.00 0.00 58 1012.1
20181211054508 69 173 2.0 8.0 0.00 0.00 0.00 58 1012.1
20181211053512 69 98 3.0 8.0 0.00 0.00 0.00 54 1012.3
20181211052506 69 53 4.0 11.0 0.00 0.00 0.00 54 1012.4
20181211051433 68 59 5.0 11.0 0.00 0.00 0.00 48 1012.6
20181211050439 70 69 4.0 10.0 0.00 0.00 0.00 44 1012.5
20181211045412 69 95 4.0 10.0 0.00 0.00 0.00 43 1012.5
20181211044354 70 87 4.0 10.0 0.00 0.00 0.00 37 1012.5
20181211043329 70 119 5.0 10.0 0.00 0.00 0.00 31 1012.6
20181211042346 71 94 3.0 8.0 0.00 0.00 0.00 38 1012.7
20181211041355 71 71 3.0 7.0 0.00 0.00 0.00 37 1012.9
20181211040324 71 100 2.0 6.0 0.00 0.00 0.00 35 1013.2
20181211035247 71 120 3.0 7.0 0.00 0.00 0.00 40 1013.4
20181211034245 71 95 3.0 9.0 0.00 0.00 0.00 38 1013.4
20181211033229 71 88 4.0 9.0 0.00 0.00 0.00 36 1013.6
20181211032201 71 92 3.0 9.0 0.00 0.00 0.00 37 1013.7
20181211031216 71 39 4.0 8.0 0.00 0.00 0.00 27 1013.6
20181211030203 71 62 2.0 7.0 0.00 0.00 0.00 34 1013.7
20181211025142 72 98 3.0 8.0 0.00 0.00 0.00 38 1013.9
20181211024200 72 159 1.0 10.0 0.00 0.00 0.00 37 1014.3
20181211023222 71 90 3.0 10.0 0.00 0.00 0.00 38 1014.3
20181211022222 70 60 3.0 8.0 0.00 0.00 0.00 40 1014.5
20181211021217 69 45 3.0 9.0 0.00 0.00 0.00 41 1014.8
20181211020144 69 20 3.0 9.0 0.00 0.00 0.00 35 1015.0
20181211015135 68 62 3.0 8.0 0.00 0.00 0.00 44 1014.9
20181211014123 68 80 4.0 8.0 0.00 0.00 0.00 43 1014.9
20181211013123 68 84 3.0 8.0 0.00 0.00 0.00 46 1015.0
20181211012123 67 115 3.0 8.0 0.00 0.00 0.00 49 1014.9
20181211011102 67 95 2.0 5.0 0.00 0.00 0.00 50 1014.9
20181211010053 66 89 2.0 8.0 0.00 0.00 0.00 54 1015.0
20181211005015 66 90 2.0 9.0 0.00 0.00 0.00 55 1015.0
20181211003957 65 59 4.0 9.0 0.00 0.00 0.00 58 1015.2
20181211003000 65 69 3.0 8.0 0.00 0.00 0.00 56 1015.3
20181211001954 64 104 2.0 6.0 0.00 0.00 0.00 57 1015.6
20181211000950 64 105 2.0 6.0 0.00 0.00 0.00 57 1015.6
20181210235945 64 81 2.0 5.0 0.00 0.00 0.00 59 1015.8
20181210235005 63 31 3.0 5.0 0.00 0.00 0.00 64 1016.0
20181210233928 63 115 1.0 7.0 0.00 0.00 0.00 66 1015.8
20181210232947 63 52 2.0 7.0 0.00 0.00 0.00 65 1015.6
20181210231914 62 81 2.0 7.0 0.00 0.00 0.00 71 1015.6
20181210230843 62 103 2.0 5.0 0.00 0.00 0.00 67 1016.0
20181210225810 62 86 1.0 4.0 0.00 0.00 0.00 69 1015.9
20181210224734 61 33 1.0 5.0 0.00 0.00 0.00 70 1016.0
20181210223746 61 87 1.0 8.0 0.00 0.00 0.00 71 1015.8
20181210222714 60 79 2.0 8.0 0.00 0.00 0.00 71 1015.9
20181210221720 60 90 1.0 4.0 0.00 0.00 0.00 72 1015.8
20181210220644 60 88 1.0 7.0 0.00 0.00 0.00 74 1015.7
20181210215610 59 57 2.0 7.0 0.00 0.00 0.00 73 1015.8
20181210214559 59 57 0.0 4.0 0.00 0.00 0.00 77 1015.7
20181210213620 58 76 2.0 8.0 0.00 0.00 0.00 82 1015.6
20181210212617 57 98 3.0 8.0 0.00 0.00 0.00 80 1015.6
20181210211639 57 66 1.0 6.0 0.00 0.00 0.00 81 1015.6
20181210210615 55 88 0.0 3.0 0.00 0.00 0.00 85 1015.5
20181210205628 54 99 2.0 5.0 0.00 0.00 0.00 85 1015.6
20181210204630 54 64 1.0 5.0 0.00 0.00 0.00 88 1015.5
20181210203612 53 86 0.0 4.0 0.00 0.00 0.00 90 1015.3
20181210202631 53 123 0.0 0.0 0.00 0.00 0.00 91 1015.3
20181210201640 52 69 0.0 0.0 0.00 0.00 0.00 93 1015.3
20181210200631 51 355 0.0 0.0 0.00 0.00 0.00 93 1015.2
20181210195611 51 104 0.0 0.0 0.00 0.00 0.00 93 1015.2
20181210194552 51 104 0.0 1.0 0.00 0.00 0.00 94 1015.1
20181210193540 50 65 0.0 0.0 0.00 0.00 0.00 95 1015.0
20181210192558 49 93 0.0 0.0 0.00 0.00 0.00 95 1015.1
20181210191524 48 263 0.0 0.0 0.00 0.00 0.00 93 1015.1
20181210190456 49 263 0.0 0.0 0.00 0.00 0.00 93 1015.2
20181210185514 49 263 0.0 2.0 0.00 0.00 0.00 93 1015.1
20181210184439 49 88 0.0 0.0 0.00 0.00 0.00 94 1014.9
20181210183411 49 34 0.0 1.0 0.00 0.00 0.00 93 1014.9
20181210182353 49 95 0.0 0.0 0.00 0.00 0.00 92 1015.0
20181210181331 49 95 0.0 0.0 0.00 0.00 0.00 92 1015.1
20181210180320 50 95 0.0 0.0 0.00 0.00 0.00 92 1015.0
20181210175314 50 275 0.0 0.0 0.00 0.00 0.00 91 1015.1
20181210174336 50 275 0.0 0.0 0.00 0.00 0.00 91 1015.0
20181210173311 50 93 0.0 1.0 0.00 0.00 0.00 91 1015.1
20181210172238 51 280 0.0 0.0 0.00 0.00 0.00 90 1015.0
20181210171236 51 296 0.0 0.0 0.00 0.00 0.00 91 1015.0
20181210170204 51 299 0.0 1.0 0.00 0.00 0.00 90 1015.0
20181210165157 51 255 0.0 0.0 0.00 0.00 0.00 89 1015.1
20181210164200 51 356 0.0 0.0 0.00 0.00 0.00 89 1015.1
20181210163146 52 126 0.0 0.0 0.00 0.00 0.00 89 1015.1
20181210162145 52 75 1.0 5.0 0.00 0.00 0.00 89 1015.4
20181210161116 52 55 0.0 3.0 0.00 0.00 0.00 89 1015.4
20181210160136 52 173 0.0 8.0 0.00 0.00 0.00 89 1015.4
20181210155106 52 82 1.0 8.0 0.00 0.00 0.00 89 1015.2
20181210154038 52 131 1.0 7.0 0.00 0.00 0.00 89 1015.5
20181210153036 52 90 1.0 3.0 0.00 0.00 0.00 88 1015.8
20181210152055 52 91 2.0 7.0 0.00 0.00 0.00 88 1015.8
20181210151102 52 76 2.0 7.0 0.00 0.00 0.00 89 1016.0
20181210150041 52 84 2.0 6.0 0.00 0.00 0.00 89 1016.1
20181210145049 52 90 1.0 6.0 0.00 0.00 0.00 89 1016.3
20181210144047 52 85 1.0 6.0 0.00 0.00 0.00 89 1016.4
20181210143030 52 103 1.0 6.0 0.00 0.00 0.00 89 1016.5
20181210142047 52 86 1.0 5.0 0.00 0.00 0.00 88 1016.6
20181210141038 52 57 1.0 4.0 0.00 0.00 0.00 89 1016.7
20181210140015 52 90 1.0 4.0 0.00 0.00 0.00 89 1016.7
20181210135037 52 7 1.0 4.0 0.00 0.00 0.00 90 1016.8
20181210134026 53 99 1.0 3.0 0.00 0.00 0.00 90 1016.8
20181210133048 53 92 1.0 4.0 0.00 0.00 0.00 89 1016.8
20181210132102 53 96 1.0 4.0 0.00 0.00 0.00 89 1016.7
20181210131031 53 94 1.0 4.0 0.00 0.00 0.00 89 1016.9
20181210130051 53 90 0.0 4.0 0.00 0.00 0.00 89 1017.0
20181210125039 53 92 1.0 4.0 0.00 0.00 0.00 89 1017.1
20181210124058 53 92 0.0 4.0 0.00 0.00 0.00 89 1017.0
20181210123117 53 147 0.0 4.0 0.00 0.00 0.00 89 1016.9
20181210122138 54 76 0.0 4.0 0.00 0.00 0.00 89 1016.9
20181210121121 54 114 0.0 3.0 0.00 0.00 0.00 89 1017.0
20181210120122 54 88 0.0 4.0 0.00 0.00 0.00 89 1017.1
20181210115118 54 86 0.0 4.0 0.00 0.00 0.00 90 1017.2
20181210114108 54 114 0.0 0.0 0.00 0.00 0.00 89 1017.3
20181210113044 54 71 0.0 0.0 0.00 0.00 0.00 89 1017.3
20181210112019 54 87 0.0 0.0 0.00 0.00 0.00 89 1017.3
20181210111008 54 214 0.0 1.0 0.00 0.00 0.00 89 1017.3
20181210105954 54 175 0.0 0.0 0.00 0.00 0.00 88 1017.3
20181210104006 55 121 0.0 1.0 0.00 0.00 0.00 88 1017.3
20181210103012 55 88 0.0 0.0 0.00 0.00 0.00 87 1017.4
20181210102017 55 169 0.0 0.0 0.00 0.00 0.00 85 1017.3
20181210101007 56 181 0.0 2.0 0.00 0.00 0.00 85 1017.3
20181210095953 56 281 0.0 3.0 0.00 0.00 0.00 84 1017.1
20181210094934 56 195 0.0 2.0 0.00 0.00 0.00 83 1017.0
20181210093909 57 88 0.0 1.0 0.00 0.00 0.00 82 1017.0
20181210092832 57 88 0.0 3.0 0.00 0.00 0.00 80 1016.9
20181210091801 58 100 1.0 4.0 0.00 0.00 0.00 79 1016.8
20181210090729 58 209 1.0 5.0 0.00 0.00 0.00 77 1016.7
20181210085751 59 100 1.0 4.0 0.00 0.00 0.00 76 1016.6
20181210084737 59 87 1.0 6.0 0.00 0.00 0.00 75 1016.6
20181210083737 60 106 2.0 8.0 0.00 0.00 0.00 74 1016.4